Location: Quesnel
(52.9830°N, 122.4830°W)
Time: 00:53:49
(UTC-07:00)

ISS - All Passes

Search period start: 26 April 2017 00:00
Search period end: 06 May 2017 00:00
Orbit: 400 x 409 km, 51.6° (Epoch: 26 April)

Date Brightness Start Highest point End Pass type
(mag) Time Alt. Az. Time Alt. Az. Time Alt. Az.
26 Apr - 10:29:01 10° SW 10:32:01 35° SSE 10:35:02 10° E daylight
26 Apr - 12:05:01 10° W 12:08:16 69° S 12:11:31 10° E daylight
26 Apr - 13:41:26 10° W 13:44:37 51° SSW 13:47:47 10° ESE daylight
26 Apr - 15:18:21 10° WSW 15:20:36 17° SW 15:22:50 10° S daylight
27 Apr - 09:37:07 10° SSW 09:39:51 25° SSE 09:42:36 10° E daylight
27 Apr - 11:12:46 10° WSW 11:16:00 62° S 11:19:13 10° E daylight
27 Apr - 12:49:08 10° W 12:52:21 62° S 12:55:35 10° ESE daylight
27 Apr - 14:25:45 10° W 14:28:29 25° SSW 14:31:13 10° SSE daylight
28 Apr - 08:45:29 10° S 08:47:44 17° SE 08:49:59 10° ESE daylight
28 Apr - 10:20:33 10° WSW 10:23:44 51° SSE 10:26:54 10° E daylight
28 Apr - 11:56:49 10° W 12:00:03 69° S 12:03:19 10° E daylight
28 Apr - 13:33:18 10° W 13:36:18 35° SSW 13:39:18 10° SE daylight
29 Apr - 07:54:30 10° SSE 07:55:39 11° SE 07:56:49 10° ESE daylight
29 Apr - 09:28:24 10° SW 09:31:28 39° SSE 09:34:33 10° E daylight
29 Apr - 11:04:30 10° W 11:07:45 70° S 11:10:59 10° E daylight
29 Apr - 12:40:56 10° W 12:44:05 46° SSW 12:47:13 10° ESE daylight
29 Apr - 14:18:02 10° WSW 14:20:00 15° SW 14:21:58 10° S daylight
30 Apr - 08:36:24 10° SW 08:39:15 28° SSE 08:42:07 10° E daylight
30 Apr - 10:12:12 10° WSW 10:15:26 65° S 10:18:40 10° E daylight
30 Apr - 11:48:34 10° W 11:51:47 58° SSW 11:55:00 10° ESE daylight
30 Apr - 13:25:16 10° W 13:27:52 22° SSW 13:30:28 10° SSE daylight
01 May - 07:44:37 10° SSW 07:47:04 20° SSE 07:49:32 10° E daylight
01 May - 09:19:55 10° WSW 09:23:07 55° SSE 09:26:19 10° E daylight
01 May - 10:56:14 10° W 10:59:28 67° S 11:02:42 10° ESE daylight
01 May - 12:32:44 10° W 12:35:40 31° SSW 12:38:36 10° SE daylight
02 May - 06:53:16 10° S 06:54:56 13° SE 06:56:37 10° ESE daylight
02 May - 08:27:43 10° SW 08:30:49 43° SSE 08:33:56 10° E daylight
02 May - 10:03:52 10° W 10:07:07 71° S 10:10:22 10° E daylight
02 May - 11:40:18 10° W 11:43:25 42° SSW 11:46:31 10° SE daylight
02 May - 13:17:40 10° WSW 13:19:17 13° SW 13:20:52 10° S daylight
03 May - 07:35:36 10° SW 07:38:33 32° SSE 07:41:30 10° E daylight
03 May - 09:11:30 10° WSW 09:14:46 68° S 09:18:00 10° E daylight
03 May - 10:47:55 10° W 10:51:06 54° SSW 10:54:18 10° ESE daylight
03 May - 12:24:42 10° W 12:27:08 19° SSW 12:29:33 10° SSE daylight
04 May - 06:43:41 10° SSW 06:46:18 22° SSE 06:48:56 10° E daylight
04 May - 08:19:10 10° WSW 08:22:24 59° SSE 08:25:37 10° E daylight
04 May - 09:55:30 10° W 09:58:45 65° S 10:01:59 10° ESE daylight
04 May - 11:32:04 10° W 11:34:55 28° SSW 11:37:45 10° SSE daylight
05 May - 05:52:06 10° S 05:54:07 15° SE 05:56:08 10° ESE daylight
05 May - 07:26:54 10° WSW 07:30:03 47° SSE 07:33:12 10° E daylight
05 May - 09:03:06 10° W 09:06:22 70° S 09:09:37 10° E daylight
05 May - 10:39:35 10° W 10:42:38 38° SSW 10:45:41 10° SE daylight
05 May - 12:17:22 10° WSW 12:18:26 11° SW 12:19:30 10° SSW daylight
